Showing default

CALSPHERE 1, 900

Orbit data source: Space-Track

CALSPHERE 1, 900 is a payload satellite owned by NRL (US) in LEO that was launched on Tue, 06 Oct 1964 UTC via a THOR ABLESTAR launch vehicle from the Air Force Western Test Range (AFWTR). Payload-class satellites include a variety of spacecraft equipped with specific instruments for various scientific and technological missions. These include communications satellites like Starlink; space stations such as the ISS; scientific satellites like the Hubble; Earth observation satellites from companies like Planet Labs, Umbra, and HawkEye 360; GPS; miniature CubeSats for education and research; and military/defense satellites.

Loading next visibility...
Identifier
900, 1964-063C
Orbit
LEO
Country
Flag of USUS
Related business
Manufacturer
NRL
Mission
Operational spacecraft
Bus & Motor
NRL 14", Unknown motor
Mass
1 kg wet, 1 kg dry
Launch date (UTC)
1964-10-06 (62 years ago)
Launch vehicle
THOR ABLESTAR
Launch site
Air Force Western Test Range (AFWTR)
Object type
Payload
Rocket body
Debris
Shape & HBR
SPHERE, 1.1 m
Radar Cross Section
Medium (>0.1 m² and <1 m²)

Expand to show TLE details & history
Last TLE update: 16 hours ago

TLE from 16 hours ago
0 CALSPHERE 1
1 00900U 64063C   26264.99365185  .00000428  00000-0  42569-3 0  9997
2 00900  90.2180  74.0106 0025890   3.7533 121.5849 13.76709843 84745
Epoch: 2026-09-21T23:50Z
TLE epoch observation values (Epoch: 2026-09-21T23:50:51.519Z)
Latitude
54.50414°
Longitude
-104.26548°
Altitude
994.668 km
Speed
7.354 km/s
True Right ascension
16h 57m 15s
True Declination
54° 20' 48"
Sunlit
Object was in daylight at epoch
Visualization orbit readout
Latitude
Unknown
Longitude
Unknown
Altitude
Unknown
Speed
Unknown
Apparent Right ascension
Unknown
Apparent Declination
Unknown
Sunlit
N/A
Visualization observer readout
Local Sidereal Time
09:03:10
Azimuth
Unknown
Elevation
Unknown
Doppler factor
Unknown
Orbital elements
Apogee altitude
991.622 km
Perigee altitude
953.56 km
Semi-major axis
7,350.728 km
Eccentricity
0.00259
Inclination
90.218°
RAAN
74.0106°
Arg. of periapsis
3.7533°
True anomaly
121.8372°
Mean anomaly
121.5849°
Eccentric anomaly
121.71109°
Mean motion
3.44388 °/min
Orbital period
104.53 mins
BSTAR
0.00042569
Loading maneuver chart data...
Computing Atmospheric mass density...
Loading historical data...
Loading historical data...
Loading historical data...
Loading historical data...
Loading historical data...
Loading historical data...
Loading historical data...

Documentation

Showing up to 5 results
|